Content
SEND FEEDBACK

Daily
Averages
Monthly
Summary
Greece

ATHENS, GREECE


Home > Europe > Greece
Elevation: 69 feet     Latitude: 37 54N     Longitude: 023 44E

WEATHER
 
SELECT A DAY
Number of Records: 83,163;   Date Range: 4/14/01 - 11/24/14
 
SHARE

PRINT THIS DATA

[ ← Previous Day ]
WEATHER ALMANAC - FEBRUARY 14, 2013
[ Next Day → ]
[ °C ]   °F
Weather ElementAverageHighLow
Temperature49.3 °F53.6 °F (12:50 am)48.2 °F (5:50 am)
Dewpoint43.3 °F46.4 °F (5:20 am)41 °F (1:20 am)
Humidity80.2 %87 % (5:20 am)62 % (1:20 am)
Barometer29.79 in29.92 in (12:50 am)29.68 in (11:50 pm)
Wind Speed5 mph12.7 mph (10:20 am)
Weather ElementAverage
Visibility6 mi
Wind DirectionENE (82.6 °)

Weather ElementTotal
Precipitation---
Heating Degree Days14.1 (Base 65)
Growing Degree Days0.9 (Base 50)
Averaged from 47 records on February 14, 2013
WEATHER CONDITIONS BREAKOUT
WIND DIRECTION BREAKOUT
WEATHER BY HOUR - FEBRUARY 14, 2013
[ °C ]   °F
Local TimeTemperatureDewpointHumidityBarometerVisibilityWind DirectionWind SpeedGust SpeedPrecipitationEventsConditions
12:50 AM53.6 °F42.8 °F67 %29.92 in6.2 miSW (220°)6.9 mphMostly Cloudy
1:20 AM53.6 °F41.0 °F62 %29.92 in6.2 miSW (230°)8.1 mphDrizzle
1:50 AM51.8 °F41.0 °F67 %29.89 in6.2 miWest (260°)10.4 mphMostly Cloudy
2:20 AM51.8 °F41.0 °F67 %29.89 in6.2 miWest (270°)6.9 mphMostly Cloudy
2:50 AM50.0 °F41.0 °F71 %29.89 in6.2 miSSW (210°)8.1 mphMostly Cloudy
3:20 AM51.8 °F41.0 °F67 %29.89 in6.2 miSSW (210°)5.8 mphRainLight Rain
3:50 AM50.0 °F41.0 °F71 %29.86 in6.2 miVariable3.5 mphMostly Cloudy
4:20 AM50.0 °F44.6 °F82 %29.89 in6.2 miNNE (20°)6.9 mphRainRain
4:45 AM50.0 °F44.6 °F82 %29.89 in5.0 miVariable3.5 mphRainRain
5:20 AM50.0 °F46.4 °F87 %29.86 in6.2 miNorth (350°)6.9 mphRainLight Rain
5:50 AM48.2 °F44.6 °F87 %29.86 in6.2 miNorth (10°)5.8 mphMostly Cloudy
6:20 AM48.2 °F44.6 °F87 %29.86 in6.2 miNE (50°)2.3 mphRainLight Rain
6:50 AM48.2 °F44.6 °F87 %29.83 in6.2 miENE (60°)5.8 mphMostly Cloudy
7:20 AM48.2 °F42.8 °F82 %29.83 in6.2 miWest (260°)1.2 mphMostly Cloudy
7:50 AM48.2 °F42.8 °F82 %29.83 in6.2 miVariable1.2 mphMostly Cloudy
8:20 AM50.0 °F42.8 °F76 %29.83 in6.2 miVariable1.2 mphOvercast
8:50 AM50.0 °F44.6 °F82 %29.83 in6.2 miNorth (350°)3.5 mphOvercast
9:20 AM50.0 °F44.6 °F82 %29.83 in6.2 miNorth (10°)6.9 mphOvercast
9:50 AM50.0 °F44.6 °F82 %29.83 in5.0 miNNE (30°)5.8 mphRainLight Rain
10:20 AM48.2 °F42.8 °F82 %29.83 in3.1 miNE (50°)12.7 mphRainRain
10:50 AM48.2 °F44.6 °F87 %29.83 in4.3 miNorth (360°)4.6 mphRainLight Rain
11:20 AM50.0 °F44.6 °F82 %29.80 in6.2 miNorth (10°)8.1 mphOvercast
11:50 AM50.0 °F44.6 °F82 %29.80 in6.2 miNorth (10°)9.2 mphOvercast
12:20 PM48.2 °F42.8 °F82 %29.80 in4.3 miNNE (30°)4.6 mphRainLight Rain
12:50 PM50.0 °F44.6 °F82 %29.80 in5.0 miVariable1.2 mphRainLight Rain
1:20 PM48.2 °F42.8 °F82 %29.77 in5.6 miNNE (30°)4.6 mphRainLight Rain
1:50 PM48.2 °F42.8 °F82 %29.77 in6.2 miNNE (20°)10.4 mphOvercast
2:20 PM48.2 °F42.8 °F82 %29.74 in6.2 miNNE (20°)6.9 mphOvercast
2:50 PM50.0 °F42.8 °F76 %29.74 in6.2 miNNE (20°)6.9 mphOvercast
3:20 PM50.0 °F42.8 °F76 %29.74 in6.2 miNNE (30°)9.2 mphOvercast
3:50 PM50.0 °F44.6 °F82 %29.74 in6.2 miNNE (20°)8.1 mphOvercast
4:20 PM50.0 °F44.6 °F82 %29.71 in6.2 miNNE (20°)8.1 mphOvercast
4:50 PM50.0 °F42.8 °F76 %29.71 in6.2 miNNE (20°)8.1 mphOvercast
5:20 PM48.2 °F42.8 °F82 %29.71 in6.2 miNNE (30°)5.8 mphOvercast
5:50 PM48.2 °F42.8 °F82 %29.71 in6.2 miNNE (30°)3.5 mphLight Drizzle
6:20 PM48.2 °F42.8 °F82 %29.71 in6.2 miVariable2.3 mphLight Drizzle
6:50 PM48.2 °F42.8 °F82 %29.71 in6.2 miNorth (10°)2.3 mphRainLight Rain
7:20 PM48.2 °F42.8 °F82 %29.71 in6.2 miNNE (20°)2.3 mphDrizzle
7:50 PM48.2 °F42.8 °F82 %29.71 in6.2 miNNE (30°)1.2 mphLight Drizzle
8:20 PM48.2 °F42.8 °F82 %29.71 in6.2 miCalmOvercast
8:50 PM48.2 °F42.8 °F82 %29.71 in6.2 miVariable2.3 mphOvercast
9:20 PM48.2 °F42.8 °F82 %29.71 in6.2 miSouth (170°)2.3 mphLight Drizzle
9:50 PM48.2 °F42.8 °F82 %29.71 in6.2 miVariable3.5 mphLight Drizzle
10:20 PM48.2 °F42.8 °F82 %29.71 in6.2 miCalmLight Drizzle
10:50 PM48.2 °F44.6 °F87 %29.71 in6.2 miSouth (190°)2.3 mphDrizzle
11:20 PM48.2 °F44.6 °F87 %29.71 in6.2 miSW (220°)3.5 mphLight Drizzle
11:50 PM48.2 °F44.6 °F87 %29.68 in6.2 miVariable2.3 mphLight Drizzle
Hourly data recorded from LGAV, located miles away from Athens, Greece







STORIES FROM OUR PARTNERS